Find Starlink 4076

NORAD ID: 52667 Int'l Des: 2022-053 Owner: SPXS Country: US Constellation: starlink operational
LEOCIRCULAR

現在のビュー

3D地球を読み込み中...

About Starlink 4076

Starlink 4076 (NORAD 52667) is a starlink constellation satellite (v1.5) launched May 18, 2022 by SPXS of US. It operates in LEO, CIRCULAR orbit with a mass of 297.00 kg.

Starlink 4076について

説明を読み込み中...

次回通過

Passes for default location (London). Set your location on the main map for personalized predictions.

高度履歴

Loading altitude history...

軌道要素

1 52667U 22053M 26167.02461553 -.00000380 00000-0 -57994-5 0 9998
2 52667 53.1622 72.5897 0001815 93.0720 267.0479 15.08831349225894
Epoch: Jun 16, 2026 • Age: 8 hours

現在のステータス

高度 545.0 km
速度 7.60 km/s
衛星直下点 52.81°N, 132.86°E
打ち上げ日 May 18, 2022
運用期間 4 years
タイプ internet

技術仕様

分類 Payload
質量 297.00 kg
乾燥質量 275.00 kg
総質量 297.00 kg
長さ 0.20 m
直径 2.80 m
スパン 9.00 m
形状 Box + pan
製造者 SPXS
バスタイプ Starlink
フェーズステータス In Orbit
所有者/国 SPXS/US

Most Searched